658  
ASUS41 KLWX 312312  
RWRLWX  
 
REGIONAL WEATHER ROUNDUP  
NATIONAL WEATHER SERVICE BALTIMORE MD/WASHINGTON DC  
700 PM EDT SUN MAY 31 2020  
 
NOTE: "FAIR" INDICATES FEW OR NO CLOUDS BELOW 12,000 FEET  
WITH NO SIGNIFICANT WEATHER AND/OR S TO VISIBILITY
.  
TC=TEMPERATURE CELSIUS  
 
* =NON NWS SITE. STATION DOES NOT REPORT PRECIPITATION (E.G. RAIN,  
SNOW, ETC.), THUNDER, OR FOG.
 
 
DCZ001-MDZ009-015-VAZ040>042-051-053>054-010000-  
WASHINGTON METRO  
 
CITY SKY/WX TMP DP RH WIND PRES REMARKS
 
WASHINGTON NAT MOSUNNY 73 40 30 NW15G22 30.09R  
DULLES MOSUNNY 73 37 27 N17G23 30.09R  
ANDREWS AFB MOSUNNY 71 38 30 NW13 30.07S  
FT BELVOIR FAIR 74 39 27 N7 30.08S  
QUANTICO FAIR 74 43 32 N10 30.09S  
COLLEGE PARK* FAIR 71 31 22 N8 30.08R  
LEESBURG* FAIR 70 41 35 N9 30.11S  
MANASSAS* FAIR 73 41 31 N15 30.09S  
GAITHERSBURG* FAIR 70 38 31 NW10 30.11R  
 

 
 
MDZ006>007-011-014-010000-  
BALTIMORE METRO  
 
CITY SKY/WX TMP DP RH WIND PRES REMARKS
 
BWI AIRPORT MOSUNNY 74 36 25 NW10G18 30.07S  
BALT INNER HAR N/A 72 35 25 MISG 30.08S  
MARTIN STATE MOSUNNY 72 37 28 NW8 30.09S  
ANNAPOLIS PTSUNNY 72 45 37 NW8 30.07R  
ABERDEEN* FAIR 69 40 34 N6 30.08S  
FORT MEADE* FAIR 70 37 30 NW7 30.11R  
 

 
 
MDZ012-015-019>023-010000-  
MARYLAND EASTERN SHORE  
 
CITY SKY/WX TMP DP RH WIND PRES REMARKS
 
OCEAN CITY FAIR 71 44 37 N9 30.07S  
SALISBURY FAIR 72 42 34 NW9 30.07S  
EASTON* MOSUNNY 72 41 33 NW8 30.11S  
 

 
 
MDZ017>025-010000-  
SOUTHERN MARYLAND  
 
CITY SKY/WX TMP DP RH WIND PRES REMARKS
 
PATUXENT RIVER FAIR 72 47 40 NE7 30.08S  
ST INIGOES FAIR 74 49 41 E5 30.08S  
LEONARDTOWN* NOT AVBL  
 

 
 
MDZ003>005-010000-  
NORTH CENTRAL MARYLAND  
 
CITY SKY/WX TMP DP RH WIND PRES REMARKS
 
FREDERICK* MOSUNNY 72 37 28 NW8 30.11R  
HAGERSTOWN APT FAIR 69 34 27 NW14G24 30.12R  
WESTMINSTER* NOT AVBL  
 

 
 
MDZ501>502-010000-  
WESTERN MARYLAND  
 
CITY SKY/WX TMP DP RH WIND PRES REMARKS
 
OAKLAND* NOT AVBL  
CUMBERLAND* NOT AVBL  
 

 
 
VAZ025>031-010000-  
SHENANDOAH VALLEY  
 
CITY SKY/WX TMP DP RH WIND PRES REMARKS
 
WINCHESTER* SUNNY 68 37 32 NW13 30.11R  
FRONT ROYAL* FAIR 70 39 32 NW9G17 30.11R  
LURAY* FAIR 72 36 26 N9G16 30.11R  
NEW MARKET* FAIR 71 38 30 N6 30.11R  
STAUNTON* CLOUDY 71 41 34 N6 30.13R  
WAYNESBORO* CLOUDY 70 47 42 N8 30.11S  
 

 
 
WVZ021-048>050-054>055-010000-  
EASTERN WEST VIRGINIA PANHANDLE  
 
CITY SKY/WX TMP DP RH WIND PRES REMARKS
 
MARTINSBURG FAIR 69 37 30 N14G23 30.11R  
PETERSBURG* FAIR 69 42 36 NW10G18 30.15R  
 

 
 
VAZ036>039-050-010000-  
CENTRAL FOOTHILLS  
 
CITY SKY/WX TMP DP RH WIND PRES REMARKS
 
CHARLOTTESVILL MOSUNNY 74 46 36 N5 30.08S  
CULPEPER* FAIR 73 41 31 N6 30.10R  
ORANGE* FAIR 70 46 43 CALM 30.10R  
GORDONSVILLE* FAIR 73 47 40 N5 30.08S  
WARRENTON* FAIR 74 35 24 NW10G16 30.09S  
 

 
 
VAZ055>057-010000-  
NORTH AND CENTRAL PIEDMONT  
 
CITY SKY/WX TMP DP RH WIND PRES REMARKS
 
FREDERICKSBRG* FAIR 74 47 38 N6 30.08S  
STAFFORD* FAIR 70 47 44 CALM 30.12S  
 

 
 
NCZ024-NYZ072-PAZ021-071-VAZ022-071-010000-  
OTHER REGIONAL OBSERVATIONS  
 
CITY SKY/WX TMP DP RH WIND PRES REMARKS
 
NEW YORK CITY PTSUNNY 65 30 27 MISG 30.10R  
PHILADELPHIA FAIR 69 34 27 N12 30.08R  
PITTSBURGH FAIR 61 35 37 NW9 30.22S  
ROANOKE FAIR 75 42 30 NW14 30.12R  
RICHMOND FAIR 73 45 36 N8 30.08S  
RALEIGH FAIR 75 51 43 NE8 30.09S  
 

 
 
ANZ530>537-010000-  
MARINE OBSERVATIONS  
 
STATION/POSITION TIME TEMP WIND PRES
 
AIR SEA DIR/SP/G  
(UTC) (F) (DEG/KT/KT) (MB)  
THOMAS PT LIGHT 2300 71 68 320/ 9/ 10 1019.4R  
TOLCHESTER 2224 71 71 20/ 10/ 14 1018.6  
GOOSES REEF 2254 72 20/ 2/ 6 948.9  
COVE POINT 2230 70/ 2/ 2 1019.0F  
BALT HARBOR 2230 72 66 360/ 11/ 16 1017.9S  
BALT KEY BRIDGE 2230 71 350/ 9/ 12 1018.2R  
WASH DC CHANNEL 2230 75 75 320/ 11/ 15 1018.7S  
DAHLGREN 2224 73 74 30/ 2/ 8 1017.9  
LEWISETTA 2230 69 73 110/ 11/ 12 1018.7F  
SOLOMONS ISLAND 2230 73 70 290/ 2/ 6 1018.3S  
PINEY POINT 2230 330/ 10/ 12 N/A  
POTOMAC BUOY 2254 69 50/ 4/ 4 1019.1F  
CAMBRIDGE PIER 2230 72 73 320/ 8/ 11 1018.3F  
BISHOPS HEAD 2230 72 76 340/ 7/ 14 1018.4F  
 

 
 
 
 
CLICK HERE TO GO TO PREVIOUS BULLETINS.

The Nexlab VA Page
The Nexlab MD Page
The Nexlab WV Page Main Text Page